Time,TemperatureF,DewpointF,PressureIn,WindDirection,WindDirectionDegrees,WindSpeedMPH,WindSpeedGustMPH,Humidity,HourlyPrecipIn,Conditions,Clouds,dailyrainin,SoftwareType,DateUTC
2013-08-03 00:00:00,65.9,64.7,29.87,SE,128,0.0,15.0,96,0.00,,,0.00,Wunderground v.1.15,2013-08-03 04:00:00,
2013-08-03 00:05:00,65.9,64.7,29.87,SE,128,0.0,15.0,96,0.00,,,0.00,Wunderground v.1.15,2013-08-03 04:05:00,
2013-08-03 00:10:00,66.1,65.2,29.88,SE,128,0.0,15.0,97,0.00,,,0.00,Wunderground v.1.15,2013-08-03 04:10:00,
2013-08-03 00:20:00,66.0,64.8,29.88,SE,128,0.0,15.0,96,0.00,,,0.00,Wunderground v.1.15,2013-08-03 04:20:00,
2013-08-03 00:30:00,65.9,64.7,29.87,SE,129,0.0,15.0,96,0.00,,,0.00,Wunderground v.1.15,2013-08-03 04:30:00,
2013-08-03 00:35:00,65.8,64.6,29.87,SE,128,0.0,15.0,96,0.00,,,0.00,Wunderground v.1.15,2013-08-03 04:35:00,
2013-08-03 00:40:00,65.7,64.5,29.87,SE,129,0.0,15.0,96,0.00,,,0.00,Wunderground v.1.15,2013-08-03 04:40:00,
2013-08-03 00:50:00,65.6,64.4,29.87,SE,128,0.0,15.0,96,0.00,,,0.00,Wunderground v.1.15,2013-08-03 04:50:00,
2013-08-03 01:00:00,65.5,64.3,29.87,SE,128,0.0,15.0,96,0.00,,,0.00,Wunderground v.1.15,2013-08-03 05:00:00,
2013-08-03 01:05:00,65.4,64.2,29.86,SE,128,0.0,15.0,96,0.00,,,0.00,Wunderground v.1.15,2013-08-03 05:05:00,
2013-08-03 01:15:00,65.3,63.8,29.85,SE,129,0.0,15.0,95,0.00,,,0.00,Wunderground v.1.15,2013-08-03 05:15:00,
2013-08-03 01:25:00,65.4,63.9,29.85,SE,128,0.0,15.0,95,0.00,,,0.00,Wunderground v.1.15,2013-08-03 05:25:00,
2013-08-03 01:35:00,65.4,63.9,29.85,SE,128,0.0,15.0,95,0.00,,,0.00,Wunderground v.1.15,2013-08-03 05:35:00,
2013-08-03 01:45:00,65.4,63.9,29.85,SE,129,0.0,15.0,95,0.00,,,0.00,Wunderground v.1.15,2013-08-03 05:45:00,
2013-08-03 01:55:00,65.4,63.9,29.85,SE,129,0.0,15.0,95,0.00,,,0.00,Wunderground v.1.15,2013-08-03 05:55:00,
2013-08-03 02:05:00,65.1,63.6,29.84,SE,129,0.0,15.0,95,0.00,,,0.00,Wunderground v.1.15,2013-08-03 06:05:00,
2013-08-03 02:15:00,64.9,63.4,29.84,SE,129,0.0,15.0,95,0.00,,,0.00,Wunderground v.1.15,2013-08-03 06:15:00,
2013-08-03 02:25:00,64.8,63.3,29.84,SE,129,0.0,15.0,95,0.00,,,0.00,Wunderground v.1.15,2013-08-03 06:25:00,
2013-08-03 02:35:00,64.9,63.4,29.84,SE,128,0.0,15.0,95,0.00,,,0.00,Wunderground v.1.15,2013-08-03 06:35:00,
2013-08-03 02:45:00,64.8,63.3,29.84,SE,129,0.0,15.0,95,0.00,,,0.00,Wunderground v.1.15,2013-08-03 06:45:00,
2013-08-03 02:50:00,64.7,63.2,29.84,SE,128,0.0,15.0,95,0.00,,,0.00,Wunderground v.1.15,2013-08-03 06:50:00,
2013-08-03 03:00:00,64.5,63.0,29.84,SE,128,0.0,15.0,95,0.00,,,0.00,Wunderground v.1.15,2013-08-03 07:00:00,
2013-08-03 03:05:00,64.3,62.8,29.84,SE,131,0.0,15.0,95,0.00,,,0.00,Wunderground v.1.15,2013-08-03 07:05:00,
2013-08-03 03:15:00,63.9,62.4,29.84,SE,131,0.0,15.0,95,0.00,,,0.00,Wunderground v.1.15,2013-08-03 07:15:00,
2013-08-03 03:20:00,63.8,62.3,29.83,SE,131,0.0,15.0,95,0.00,,,0.00,Wunderground v.1.15,2013-08-03 07:20:00,
2013-08-03 03:30:00,63.5,62.0,29.83,SE,131,0.0,15.0,95,0.00,,,0.00,Wunderground v.1.15,2013-08-03 07:30:00,
2013-08-03 03:40:00,63.3,61.8,29.83,SE,131,0.0,15.0,95,0.00,,,0.00,Wunderground v.1.15,2013-08-03 07:40:00,
2013-08-03 03:50:00,63.3,61.8,29.83,SE,131,0.0,15.0,95,0.00,,,0.00,Wunderground v.1.15,2013-08-03 07:50:00,
2013-08-03 04:00:00,63.3,61.8,29.83,SE,131,0.0,15.0,95,0.00,,,0.00,Wunderground v.1.15,2013-08-03 08:00:00,
2013-08-03 04:10:00,63.2,61.7,29.83,SE,131,0.0,15.0,95,0.00,,,0.00,Wunderground v.1.15,2013-08-03 08:10:00,
2013-08-03 04:15:00,63.2,61.7,29.83,SE,131,0.0,15.0,95,0.00,,,0.00,Wunderground v.1.15,2013-08-03 08:15:00,
2013-08-03 04:25:00,63.3,61.8,29.83,SE,131,0.0,15.0,95,0.00,,,0.00,Wunderground v.1.15,2013-08-03 08:25:00,
2013-08-03 04:30:00,63.3,61.8,29.83,SE,131,0.0,15.0,95,0.00,,,0.00,Wunderground v.1.15,2013-08-03 08:30:00,
2013-08-03 04:40:00,63.5,62.0,29.84,SE,131,0.0,15.0,95,0.00,,,0.00,Wunderground v.1.15,2013-08-03 08:40:00,
2013-08-03 04:50:00,63.7,61.9,29.84,SE,131,0.0,15.0,94,0.00,,,0.00,Wunderground v.1.15,2013-08-03 08:50:00,
2013-08-03 05:00:00,63.7,61.6,29.84,SE,131,0.0,15.0,93,0.00,,,0.00,Wunderground v.1.15,2013-08-03 09:00:00,
2013-08-03 05:10:00,63.9,62.1,29.84,SE,131,0.0,15.0,94,0.00,,,0.00,Wunderground v.1.15,2013-08-03 09:10:00,
2013-08-03 05:15:00,64.0,61.9,29.84,SE,131,0.0,15.0,93,0.00,,,0.00,Wunderground v.1.15,2013-08-03 09:15:00,
2013-08-03 05:25:00,64.3,62.2,29.84,SE,131,0.0,15.0,93,0.00,,,0.00,Wunderground v.1.15,2013-08-03 09:25:00,
2013-08-03 05:35:00,64.6,62.2,29.84,SE,131,0.0,15.0,92,0.00,,,0.00,Wunderground v.1.15,2013-08-03 09:35:00,
2013-08-03 05:45:00,64.7,62.0,29.85,SE,131,0.0,15.0,91,0.00,,,0.00,Wunderground v.1.15,2013-08-03 09:45:00,
2013-08-03 05:55:00,64.8,62.1,29.86,SE,131,0.0,15.0,91,0.00,,,0.00,Wunderground v.1.15,2013-08-03 09:55:00,
2013-08-03 06:05:00,64.7,62.0,29.85,SE,131,0.0,15.0,91,0.00,,,0.00,Wunderground v.1.15,2013-08-03 10:05:00,
2013-08-03 06:10:00,64.4,61.7,29.86,SE,131,0.0,15.0,91,0.00,,,0.00,Wunderground v.1.15,2013-08-03 10:10:00,
2013-08-03 06:20:00,64.1,61.7,29.86,SE,131,0.0,15.0,92,0.00,,,0.00,Wunderground v.1.15,2013-08-03 10:20:00,
2013-08-03 06:30:00,64.1,62.3,29.85,SE,131,0.0,15.0,94,0.00,,,0.00,Wunderground v.1.15,2013-08-03 10:30:00,
2013-08-03 06:40:00,64.0,62.2,29.85,SE,131,0.0,15.0,94,0.00,,,0.00,Wunderground v.1.15,2013-08-03 10:40:00,
2013-08-03 06:45:00,64.0,61.9,29.85,SE,130,0.0,15.0,93,0.00,,,0.00,Wunderground v.1.15,2013-08-03 10:45:00,
2013-08-03 06:55:00,64.2,61.2,29.85,SE,129,0.0,15.0,90,0.00,,,0.00,Wunderground v.1.15,2013-08-03 10:55:00,
2013-08-03 07:00:00,64.6,61.6,29.86,ESE,107,0.0,15.0,90,0.00,,,0.00,Wunderground v.1.15,2013-08-03 11:00:00,
2013-08-03 07:10:00,65.3,61.3,29.86,East,94,0.0,15.0,87,0.00,,,0.00,Wunderground v.1.15,2013-08-03 11:10:00,
2013-08-03 07:20:00,65.5,61.9,29.85,East,87,0.0,15.0,88,0.00,,,0.00,Wunderground v.1.15,2013-08-03 11:20:00,
2013-08-03 07:30:00,66.0,61.7,29.85,East,89,0.0,15.0,86,0.00,,,0.00,Wunderground v.1.15,2013-08-03 11:30:00,
2013-08-03 07:35:00,66.6,62.3,29.86,ENE,71,1.0,15.0,86,0.00,,,0.00,Wunderground v.1.15,2013-08-03 11:35:00,
2013-08-03 07:45:00,67.3,63.0,29.86,NNE,12,1.0,15.0,86,0.00,,,0.00,Wunderground v.1.15,2013-08-03 11:45:00,
2013-08-03 07:55:00,67.5,63.2,29.85,East,87,1.0,15.0,86,0.00,,,0.00,Wunderground v.1.15,2013-08-03 11:55:00,
2013-08-03 08:05:00,67.6,63.3,29.85,NE,53,1.0,15.0,86,0.00,,,0.00,Wunderground v.1.15,2013-08-03 12:05:00,
2013-08-03 08:15:00,67.7,63.4,29.85,North,6,1.0,15.0,86,0.00,,,0.00,Wunderground v.1.15,2013-08-03 12:15:00,
2013-08-03 08:20:00,67.7,63.4,29.86,NE,48,1.0,15.0,86,0.00,,,0.00,Wunderground v.1.15,2013-08-03 12:20:00,
2013-08-03 08:30:00,67.6,63.9,29.86,ENE,72,1.0,15.0,88,0.00,,,0.01,Wunderground v.1.15,2013-08-03 12:30:00,
2013-08-03 08:40:00,67.4,63.7,29.86,SW,214,1.0,1.0,88,0.00,,,0.01,Wunderground v.1.15,2013-08-03 12:40:00,
2013-08-03 08:50:00,67.3,63.9,29.86,NNE,23,1.0,15.0,89,0.00,,,0.01,Wunderground v.1.15,2013-08-03 12:50:00,
2013-08-03 08:55:00,67.3,64.3,29.86,NNW,345,1.0,15.0,90,0.00,,,0.01,Wunderground v.1.15,2013-08-03 12:55:00,
2013-08-03 09:05:00,67.3,64.3,29.86,NNE,31,0.0,15.0,90,0.00,,,0.01,Wunderground v.1.15,2013-08-03 13:05:00,
2013-08-03 09:15:00,67.2,64.2,29.86,NNE,32,0.0,15.0,90,0.00,,,0.01,Wunderground v.1.15,2013-08-03 13:15:00,
2013-08-03 09:25:00,67.1,64.4,29.85,SE,146,1.0,15.0,91,0.00,,,0.02,Wunderground v.1.15,2013-08-03 13:25:00,
2013-08-03 09:30:00,67.1,64.4,29.85,SSE,148,0.0,15.0,91,0.00,,,0.02,Wunderground v.1.15,2013-08-03 13:30:00,
2013-08-03 09:40:00,67.3,64.6,29.85,ESE,110,0.0,15.0,91,0.00,,,0.02,Wunderground v.1.15,2013-08-03 13:40:00,
2013-08-03 09:50:00,67.5,64.8,29.85,ESE,105,0.0,15.0,91,0.00,,,0.02,Wunderground v.1.15,2013-08-03 13:50:00,
2013-08-03 10:00:00,67.5,64.8,29.85,SE,133,1.0,15.0,91,0.00,,,0.02,Wunderground v.1.15,2013-08-03 14:00:00,
2013-08-03 10:05:00,67.6,64.9,29.85,NE,50,1.0,15.0,91,0.00,,,0.02,Wunderground v.1.15,2013-08-03 14:05:00,
2013-08-03 10:10:00,67.7,65.0,29.85,North,9,0.0,15.0,91,0.00,,,0.02,Wunderground v.1.15,2013-08-03 14:10:00,
2013-08-03 10:20:00,68.0,65.3,29.86,North,355,0.0,15.0,91,0.00,,,0.02,Wunderground v.1.15,2013-08-03 14:20:00,
2013-08-03 10:25:00,68.0,65.3,29.86,ESE,108,0.0,15.0,91,0.00,,,0.02,Wunderground v.1.15,2013-08-03 14:25:00,
2013-08-03 10:35:00,68.1,65.1,29.86,NE,46,0.0,15.0,90,0.00,,,0.02,Wunderground v.1.15,2013-08-03 14:35:00,
2013-08-03 10:45:00,68.3,65.3,29.86,East,82,0.0,15.0,90,0.00,,,0.02,Wunderground v.1.15,2013-08-03 14:45:00,
2013-08-03 10:50:00,68.3,65.3,29.86,East,81,0.0,15.0,90,0.00,,,0.02,Wunderground v.1.15,2013-08-03 14:50:00,
2013-08-03 10:55:00,68.4,65.4,29.86,East,82,0.0,15.0,90,0.00,,,0.02,Wunderground v.1.15,2013-08-03 14:55:00,
2013-08-03 11:10:00,68.8,65.7,29.86,ENE,58,0.0,15.0,90,0.00,,,0.02,Wunderground v.1.15,2013-08-03 15:10:00,
2013-08-03 11:20:00,68.7,65.6,29.86,ESE,107,0.0,15.0,90,0.00,,,0.02,Wunderground v.1.15,2013-08-03 15:20:00,
2013-08-03 11:30:00,68.6,65.5,29.85,SSE,167,0.0,15.0,90,0.00,,,0.02,Wunderground v.1.15,2013-08-03 15:30:00,
2013-08-03 11:40:00,68.6,65.9,29.85,WNW,287,0.0,15.0,91,0.00,,,0.02,Wunderground v.1.15,2013-08-03 15:40:00,
2013-08-03 11:50:00,68.6,65.9,29.86,West,262,0.0,15.0,91,0.00,,,0.03,Wunderground v.1.15,2013-08-03 15:50:00,
2013-08-03 12:00:00,68.7,66.3,29.85,ESE,110,0.0,15.0,92,0.00,,,0.03,Wunderground v.1.15,2013-08-03 16:00:00,
2013-08-03 12:10:00,68.8,66.4,29.85,East,101,0.0,15.0,92,0.00,,,0.03,Wunderground v.1.15,2013-08-03 16:10:00,
2013-08-03 12:15:00,69.1,66.7,29.85,East,101,0.0,15.0,92,0.00,,,0.03,Wunderground v.1.15,2013-08-03 16:15:00,
2013-08-03 12:25:00,69.5,66.8,29.85,SE,127,0.0,15.0,91,0.00,,,0.03,Wunderground v.1.15,2013-08-03 16:25:00,
2013-08-03 12:35:00,69.8,66.7,29.85,SSW,211,1.0,15.0,90,0.00,,,0.03,Wunderground v.1.15,2013-08-03 16:35:00,
2013-08-03 12:45:00,70.3,66.6,29.85,NE,43,0.0,15.0,88,0.00,,,0.03,Wunderground v.1.15,2013-08-03 16:45:00,
2013-08-03 12:55:00,70.9,66.8,29.85,West,274,0.0,15.0,87,0.00,,,0.03,Wunderground v.1.15,2013-08-03 16:55:00,
2013-08-03 13:05:00,71.1,66.7,29.85,NNW,347,1.0,15.0,86,0.00,,,0.03,Wunderground v.1.15,2013-08-03 17:05:00,
2013-08-03 13:15:00,71.1,66.0,29.85,WSW,239,1.0,15.0,84,0.00,,,0.03,Wunderground v.1.15,2013-08-03 17:15:00,
2013-08-03 13:25:00,71.2,66.5,29.85,South,184,1.0,15.0,85,0.00,,,0.03,Wunderground v.1.15,2013-08-03 17:25:00,
2013-08-03 13:35:00,71.3,66.6,29.85,WNW,301,0.0,15.0,85,0.00,,,0.03,Wunderground v.1.15,2013-08-03 17:35:00,
2013-08-03 13:45:00,71.2,66.1,29.85,WSW,238,0.0,15.0,84,0.00,,,0.03,Wunderground v.1.15,2013-08-03 17:45:00,
2013-08-03 13:55:00,71.1,66.0,29.85,SSW,197,0.0,15.0,84,0.00,,,0.03,Wunderground v.1.15,2013-08-03 17:55:00,
2013-08-03 14:05:00,71.1,66.0,29.85,ESE,120,1.0,15.0,84,0.00,,,0.03,Wunderground v.1.15,2013-08-03 18:05:00,
2013-08-03 14:15:00,71.4,66.0,29.85,NW,304,0.0,15.0,83,0.00,,,0.03,Wunderground v.1.15,2013-08-03 18:15:00,
2013-08-03 14:25:00,71.3,65.9,29.85,ENE,77,0.0,15.0,83,0.00,,,0.03,Wunderground v.1.15,2013-08-03 18:25:00,
2013-08-03 14:30:00,71.5,66.4,29.85,NE,46,0.0,15.0,84,0.00,,,0.03,Wunderground v.1.15,2013-08-03 18:30:00,
2013-08-03 14:35:00,71.6,66.2,29.84,NE,56,0.0,15.0,83,0.00,,,0.03,Wunderground v.1.15,2013-08-03 18:35:00,
2013-08-03 14:45:00,71.9,66.5,29.84,NE,42,1.0,15.0,83,0.00,,,0.03,Wunderground v.1.15,2013-08-03 18:45:00,
2013-08-03 14:55:00,72.0,66.6,29.83,ENE,61,1.0,15.0,83,0.00,,,0.03,Wunderground v.1.15,2013-08-03 18:55:00,
2013-08-03 15:00:00,72.0,66.2,29.83,ENE,71,0.0,15.0,82,0.00,,,0.03,Wunderground v.1.15,2013-08-03 19:00:00,
2013-08-03 15:10:00,72.2,66.4,29.83,East,87,1.0,1.0,82,0.00,,,0.03,Wunderground v.1.15,2013-08-03 19:10:00,
2013-08-03 15:15:00,72.4,66.2,29.83,ESE,122,1.0,15.0,81,0.00,,,0.03,Wunderground v.1.15,2013-08-03 19:15:00,
2013-08-03 15:25:00,72.8,66.6,29.83,East,100,0.0,15.0,81,0.00,,,0.03,Wunderground v.1.15,2013-08-03 19:25:00,
2013-08-03 15:30:00,73.0,66.8,29.82,East,89,0.0,15.0,81,0.00,,,0.03,Wunderground v.1.15,2013-08-03 19:30:00,
2013-08-03 15:40:00,73.7,67.1,29.82,SE,134,1.0,1.0,80,0.00,,,0.03,Wunderground v.1.15,2013-08-03 19:40:00,
2013-08-03 15:50:00,73.6,65.9,29.83,South,170,1.0,1.0,77,0.00,,,0.03,Wunderground v.1.15,2013-08-03 19:50:00,
2013-08-03 16:00:00,73.5,66.6,29.82,East,100,0.0,15.0,79,0.00,,,0.03,Wunderground v.1.15,2013-08-03 20:00:00,
2013-08-03 16:10:00,73.4,66.5,29.82,SSE,161,1.0,15.0,79,0.00,,,0.03,Wunderground v.1.15,2013-08-03 20:10:00,
2013-08-03 16:15:00,73.4,66.5,29.82,SSW,211,1.0,15.0,79,0.00,,,0.03,Wunderground v.1.15,2013-08-03 20:15:00,
2013-08-03 16:20:00,73.3,66.4,29.82,ESE,110,1.0,15.0,79,0.00,,,0.03,Wunderground v.1.15,2013-08-03 20:20:00,
2013-08-03 16:30:00,73.7,66.8,29.81,East,94,1.0,1.0,79,0.00,,,0.03,Wunderground v.1.15,2013-08-03 20:30:00,
2013-08-03 16:40:00,73.9,66.6,29.81,ESE,115,0.0,15.0,78,0.00,,,0.03,Wunderground v.1.15,2013-08-03 20:40:00,
2013-08-03 16:50:00,74.0,67.1,29.81,SE,134,0.0,15.0,79,0.00,,,0.03,Wunderground v.1.15,2013-08-03 20:50:00,
2013-08-03 17:00:00,73.9,67.0,29.81,East,98,0.0,15.0,79,0.00,,,0.03,Wunderground v.1.15,2013-08-03 21:00:00,
2013-08-03 17:05:00,74.1,66.4,29.81,WNW,288,0.0,15.0,77,0.00,,,0.03,Wunderground v.1.15,2013-08-03 21:05:00,
2013-08-03 17:15:00,74.0,66.3,29.81,SE,124,1.0,15.0,77,0.00,,,0.03,Wunderground v.1.15,2013-08-03 21:15:00,
2013-08-03 17:25:00,73.9,67.0,29.81,SE,124,0.0,15.0,79,0.00,,,0.03,Wunderground v.1.15,2013-08-03 21:25:00,
2013-08-03 17:35:00,74.0,67.4,29.80,ESE,108,0.0,15.0,80,0.00,,,0.03,Wunderground v.1.15,2013-08-03 21:35:00,
2013-08-03 17:45:00,73.7,67.5,29.80,SE,138,0.0,15.0,81,0.00,,,0.03,Wunderground v.1.15,2013-08-03 21:45:00,
2013-08-03 17:55:00,73.5,67.3,29.81,SE,135,0.0,15.0,81,0.00,,,0.03,Wunderground v.1.15,2013-08-03 21:55:00,
2013-08-03 18:00:00,73.5,67.3,29.81,SE,135,0.0,15.0,81,0.00,,,0.03,Wunderground v.1.15,2013-08-03 22:00:00,
2013-08-03 18:10:00,73.6,67.4,29.81,SE,135,0.0,15.0,81,0.00,,,0.03,Wunderground v.1.15,2013-08-03 22:10:00,
2013-08-03 18:20:00,73.3,66.8,29.81,ESE,109,0.0,15.0,80,0.00,,,0.03,Wunderground v.1.15,2013-08-03 22:20:00,
2013-08-03 18:30:00,73.2,67.4,29.81,ESE,108,0.0,15.0,82,0.00,,,0.03,Wunderground v.1.15,2013-08-03 22:30:00,
2013-08-03 18:35:00,73.0,66.8,29.80,SE,124,0.0,15.0,81,0.00,,,0.03,Wunderground v.1.15,2013-08-03 22:35:00,
2013-08-03 18:40:00,73.0,66.8,29.80,SE,126,0.0,15.0,81,0.00,,,0.03,Wunderground v.1.15,2013-08-03 22:40:00,
2013-08-03 18:50:00,72.6,66.8,29.80,SE,127,0.0,15.0,82,0.00,,,0.03,Wunderground v.1.15,2013-08-03 22:50:00,
2013-08-03 19:00:00,72.0,66.6,29.80,South,178,0.0,15.0,83,0.00,,,0.03,Wunderground v.1.15,2013-08-03 23:00:00,
2013-08-03 19:10:00,71.6,66.5,29.81,South,179,0.0,15.0,84,0.00,,,0.03,Wunderground v.1.15,2013-08-03 23:10:00,
2013-08-03 19:20:00,71.1,66.0,29.82,South,179,0.0,15.0,84,0.00,,,0.03,Wunderground v.1.15,2013-08-03 23:20:00,
2013-08-03 19:25:00,70.9,66.2,29.82,SSE,162,0.0,15.0,85,0.00,,,0.03,Wunderground v.1.15,2013-08-03 23:25:00,
2013-08-03 19:35:00,70.5,65.8,29.82,SSE,162,0.0,15.0,85,0.00,,,0.03,Wunderground v.1.15,2013-08-03 23:35:00,
2013-08-03 19:45:00,70.1,65.7,29.82,SSE,162,0.0,15.0,86,0.00,,,0.03,Wunderground v.1.15,2013-08-03 23:45:00,
2013-08-03 19:55:00,69.7,65.3,29.82,SSE,162,0.0,15.0,86,0.00,,,0.03,Wunderground v.1.15,2013-08-03 23:55:00,
2013-08-03 20:05:00,69.2,65.2,29.82,SSE,163,0.0,15.0,87,0.00,,,0.03,Wunderground v.1.15,2013-08-04 00:05:00,
2013-08-03 20:15:00,68.9,64.9,29.83,WNW,297,0.0,15.0,87,0.00,,,0.03,Wunderground v.1.15,2013-08-04 00:15:00,
2013-08-03 20:20:00,68.9,64.9,29.84,WSW,252,0.0,15.0,87,0.00,,,0.03,Wunderground v.1.15,2013-08-04 00:20:00,
2013-08-03 20:25:00,68.8,64.8,29.84,WSW,253,0.0,15.0,87,0.00,,,0.03,Wunderground v.1.15,2013-08-04 00:25:00,
2013-08-03 20:35:00,68.5,65.1,29.85,NNW,330,1.0,15.0,89,0.00,,,0.03,Wunderground v.1.15,2013-08-04 00:35:00,
2013-08-03 20:45:00,68.6,62.9,29.85,WNW,301,3.0,15.0,82,0.00,,,0.03,Wunderground v.1.15,2013-08-04 00:45:00,
2013-08-03 20:50:00,68.3,62.2,29.85,NW,312,2.0,2.0,81,0.00,,,0.03,Wunderground v.1.15,2013-08-04 00:50:00,
2013-08-03 21:00:00,67.5,62.2,29.87,WNW,303,2.0,15.0,83,0.00,,,0.04,Wunderground v.1.15,2013-08-04 01:00:00,
2013-08-03 21:10:00,65.5,62.2,29.86,WNW,299,1.0,1.0,89,0.13,,,0.08,Wunderground v.1.15,2013-08-04 01:10:00,
2013-08-03 21:20:00,64.7,62.3,29.85,West,260,0.0,15.0,92,0.04,,,0.08,Wunderground v.1.15,2013-08-04 01:20:00,
2013-08-03 21:30:00,63.9,61.8,29.85,WSW,255,0.0,15.0,93,0.00,,,0.08,Wunderground v.1.15,2013-08-04 01:30:00,
2013-08-03 21:35:00,63.7,61.9,29.85,WSW,255,0.0,15.0,94,0.00,,,0.08,Wunderground v.1.15,2013-08-04 01:35:00,
2013-08-03 21:45:00,63.5,62.0,29.85,WSW,255,0.0,15.0,95,0.00,,,0.08,Wunderground v.1.15,2013-08-04 01:45:00,
2013-08-03 21:55:00,63.1,61.6,29.85,WSW,255,0.0,15.0,95,0.00,,,0.08,Wunderground v.1.15,2013-08-04 01:55:00,
2013-08-03 22:05:00,62.9,61.7,29.85,WSW,255,0.0,15.0,96,0.00,,,0.08,Wunderground v.1.15,2013-08-04 02:05:00,
2013-08-03 22:15:00,62.8,61.6,29.86,WSW,255,0.0,15.0,96,0.00,,,0.08,Wunderground v.1.15,2013-08-04 02:15:00,
2013-08-03 22:20:00,62.7,61.5,29.86,WSW,255,0.0,15.0,96,0.00,,,0.08,Wunderground v.1.15,2013-08-04 02:20:00,
2013-08-03 22:30:00,62.8,61.9,29.86,WSW,255,0.0,15.0,97,0.00,,,0.08,Wunderground v.1.15,2013-08-04 02:30:00,
2013-08-03 22:40:00,62.8,61.9,29.86,WSW,255,0.0,15.0,97,0.00,,,0.08,Wunderground v.1.15,2013-08-04 02:40:00,
2013-08-03 22:50:00,62.7,61.8,29.86,WSW,255,0.0,15.0,97,0.00,,,0.08,Wunderground v.1.15,2013-08-04 02:50:00,
2013-08-03 23:00:00,62.6,61.7,29.86,WSW,255,0.0,15.0,97,0.00,,,0.08,Wunderground v.1.15,2013-08-04 03:00:00,
2013-08-03 23:10:00,62.4,61.5,29.86,WSW,255,0.0,15.0,97,0.00,,,0.08,Wunderground v.1.15,2013-08-04 03:10:00,
2013-08-03 23:15:00,62.2,61.3,29.85,WSW,255,0.0,15.0,97,0.00,,,0.08,Wunderground v.1.15,2013-08-04 03:15:00,
2013-08-03 23:25:00,61.9,61.0,29.86,WSW,255,0.0,15.0,97,0.00,,,0.08,Wunderground v.1.15,2013-08-04 03:25:00,
2013-08-03 23:30:00,61.9,61.0,29.85,WSW,255,0.0,15.0,97,0.00,,,0.08,Wunderground v.1.15,2013-08-04 03:30:00,
2013-08-03 23:40:00,61.7,60.8,29.86,WSW,255,0.0,15.0,97,0.00,,,0.08,Wunderground v.1.15,2013-08-04 03:40:00,
2013-08-03 23:50:00,61.5,60.6,29.85,WSW,255,0.0,15.0,97,0.00,,,0.08,Wunderground v.1.15,2013-08-04 03:50:00,
2013-08-03 23:55:00,61.3,60.4,29.85,WSW,255,0.0,15.0,97,0.00,,,0.08,Wunderground v.1.15,2013-08-04 03:55:00,